Regional Weather Roundup
Issued by NWS

Home | Current Version | Previous Version | Graphics & Text | Print | Product List | Glossary On
Versions: 1 2 3 4 5 6 7 8 9 10 11 12 13 14 15 16 17 18 19 20 21 22 23 24 25 26 27 28 29 30 31 32 33 34 35 36 37 38 39 40 41 42 43 44 45 46 47 48 49 50
000
ASUS45 KSLC 030810
RWRUT

UTAH REGIONAL WEATHER ROUNDUP
NATIONAL WEATHER SERVICE SALT LAKE CITY UT
200 AM MDT FRI JUL 03 2015

UTZ001>011-023>025-030900-

NORTHERN UTAH

CITY           SKY/WX    TMP DP  RH WIND       PRES   REMARKS
BRIGHAM CITY   CLEAR     74  54  49 N5        30.00S
HILL AFB       CLEAR     75  47  37 E15       30.03S
LOGAN          CLEAR     66  54  65 SE5       30.04R
OGDEN          CLEAR     76  48  37 S9        30.00S
PROVO AIRPORT  PTCLDY    66  45  45 E6        30.04R
SALT LAKE CITY CLEAR     79  47  32 E8        29.99R
VERNAL         PTCLDY    76  41  28 N8        30.08S
WENDOVER       CLEAR     79  45  29 NE6       30.02S
HEBER CITY     CLEAR     57  45  62 CALM      30.14S
WEST JORDAN    CLEAR     73  45  35 CALM      30.04R

$$

UTZ012>022-026-027-030900-

SOUTHERN/CENTRAL UTAH

CITY           SKY/WX    TMP DP  RH WIND       PRES   REMARKS
BLANDING       PTCLDY    67  55  67 E5        30.25S
BRYCE CANYON   MOCLDY    60  50  69 W12       30.30S
CEDAR CITY     CLOUDY    71  47  42 CALM      30.14S
DELTA          PTCLDY    75  44  33 MISG      30.05S
HANKSVILLE     PTCLDY    73  37  27 E3        29.99R
MILFORD        MOCLDY    72  51  47 S6        30.08S
MOAB/CYNLANDS  CLEAR     74  45  35 CALM      29.96S
PRICE          PTCLDY    70  31  23 N6        30.10S
ST GEORGE      SUNNY     84  52  32 E3        29.93F
KANAB          MOCLDY    68  57  68 CALM      30.14F

$$

REGIONAL REPORTS     COLORADO/ARIZONA

CITY           SKY/WX    TMP DP  RH WIND       PRES   REMARKS
CRAIG, CO      MOCLDY    67  44  43 E12       30.17F
GRAND JUNCTION PTCLDY    76  49  38 SE10      30.01R
RIFLE          CLEAR     66  41  40 S5        30.10S
MONTROSE       PTCLDY    74  48  39 E13G24    30.12S
CORTEZ         CLEAR     66  54  65 W3        30.19F
PAGE, AZ       CLOUDY    84  49  29 N5        29.99S
GRAND CANYON     N/A    N/A N/A N/A MISG      30.23R
KINGMAN        PTCLDY    81  52  36 S10       29.98F
FLAGSTAFF      MOCLDY    61  53  75 CALM      30.24F

$$

REGIONAL REPORTS    NEVADA/IDAHO/WYOMING

CITY           SKY/WX    TMP DP  RH WIND       PRES   REMARKS
LAS VEGAS, NV  MOCLDY    94  51  23 S12       29.81S HX  91
ELY            MOCLDY    64  52  64 S7        30.22R
ELKO           PTCLDY    65  48  54 W5        30.13R
POCATELLO, ID  CLEAR     70  42  36 E5        30.00S
BURLEY         CLEAR     66  50  56 CALM      29.97S
EVANSTON, WY   PTCLDY    66  41  40 CALM      30.26S
ROCK SPRINGS   CLEAR     61  50  67 NE9       30.25S
KEMMERER       CLEAR     61  46  59 N12G18    30.29S

$$



USA.gov is the U.S. government's official web portal to all federal, state and local government web resources and services.